Time,TemperatureF,DewpointF,PressureIn,WindDirection,WindDirectionDegrees,WindSpeedMPH,WindSpeedGustMPH,Humidity,HourlyPrecipIn,Conditions,Clouds,dailyrainin,SoftwareType,DateUTC
2013-04-06 00:00:00,45.4,20.4,29.94,NNW,338,7.4,7.4,37,0.00,,,0.00,WUHU216HW,2013-04-06 04:00:00,
2013-04-06 00:05:00,45.4,20.4,29.94,North,0,2.7,7.4,37,0.00,,,0.00,WUHU216HW,2013-04-06 04:05:00,
2013-04-06 00:10:00,45.0,20.8,29.94,NNW,338,2.7,6.3,38,0.00,,,0.00,WUHU216HW,2013-04-06 04:10:00,
2013-04-06 00:15:00,44.8,20.0,29.95,SW,225,3.1,6.9,37,0.00,,,0.00,WUHU216HW,2013-04-06 04:15:00,
2013-04-06 00:20:00,44.6,19.8,29.95,NE,45,3.1,6.9,37,0.00,,,0.00,WUHU216HW,2013-04-06 04:20:00,
2013-04-06 00:25:00,44.5,19.6,29.95,North,0,2.5,11.4,37,0.00,,,0.00,WUHU216HW,2013-04-06 04:25:00,
2013-04-06 00:30:00,44.3,19.4,29.95,North,0,5.1,11.4,37,0.00,,,0.00,WUHU216HW,2013-04-06 04:30:00,
2013-04-06 00:35:00,44.1,19.3,29.95,WNW,293,6.9,8.3,37,0.00,,,0.00,WUHU216HW,2013-04-06 04:35:00,
2013-04-06 00:40:00,43.9,19.2,29.95,SSW,203,5.6,9.6,37,0.00,,,0.00,WUHU216HW,2013-04-06 04:40:00,
2013-04-06 00:45:00,43.9,19.2,29.95,NNW,338,1.3,9.6,37,0.00,,,0.00,WUHU216HW,2013-04-06 04:45:00,
2013-04-06 00:50:00,43.6,18.8,29.95,NNW,338,3.8,7.6,37,0.00,,,0.00,WUHU216HW,2013-04-06 04:50:00,
2013-04-06 00:55:00,43.6,19.4,29.95,NE,45,2.5,6.9,38,0.00,,,0.00,WUHU216HW,2013-04-06 04:55:00,
2013-04-06 01:00:00,43.6,19.4,29.96,NW,315,4.9,7.2,38,0.00,,,0.00,WUHU216HW,2013-04-06 05:00:00,
2013-04-06 01:05:00,43.4,19.4,29.96,NNW,338,1.3,7.2,38,0.00,,,0.00,WUHU216HW,2013-04-06 05:05:00,
2013-04-06 01:10:00,43.4,20.0,29.96,NNW,338,3.4,6.5,39,0.00,,,0.00,WUHU216HW,2013-04-06 05:10:00,
2013-04-06 01:15:00,43.2,19.8,29.97,NW,315,2.5,4.7,39,0.00,,,0.00,WUHU216HW,2013-04-06 05:15:00,
2013-04-06 01:20:00,43.0,19.6,29.97,NNW,338,0.9,4.7,39,0.00,,,0.00,WUHU216HW,2013-04-06 05:20:00,
2013-04-06 01:26:00,43.0,20.4,29.98,NNW,338,2.9,6.0,40,0.00,,,0.00,WUHU216HW,2013-04-06 05:26:00,
2013-04-06 01:31:00,42.8,20.2,29.98,NW,315,1.3,6.9,40,0.00,,,0.00,WUHU216HW,2013-04-06 05:31:00,
2013-04-06 01:36:00,42.7,20.0,29.98,West,270,4.0,6.9,40,0.00,,,0.00,WUHU216HW,2013-04-06 05:36:00,
2013-04-06 01:41:00,42.7,20.0,29.98,NW,315,2.5,6.9,40,0.00,,,0.00,WUHU216HW,2013-04-06 05:41:00,
2013-04-06 01:46:00,42.5,19.8,29.98,NW,315,4.0,6.5,40,0.00,,,0.00,WUHU216HW,2013-04-06 05:46:00,
2013-04-06 01:51:00,42.5,20.3,29.99,NW,315,1.6,7.4,41,0.00,,,0.00,WUHU216HW,2013-04-06 05:51:00,
2013-04-06 01:56:00,42.5,20.9,29.99,North,0,2.2,7.4,42,0.00,,,0.00,WUHU216HW,2013-04-06 05:56:00,
2013-04-06 02:01:00,42.1,20.6,29.99,NNW,338,1.3,5.4,42,0.00,,,0.00,WUHU216HW,2013-04-06 06:01:00,
2013-04-06 02:06:00,42.1,20.6,29.99,SSE,158,1.8,5.4,42,0.00,,,0.00,WUHU216HW,2013-04-06 06:06:00,
2013-04-06 02:11:00,42.1,19.5,29.99,NW,315,2.7,5.4,40,0.00,,,0.00,WUHU216HW,2013-04-06 06:11:00,
2013-04-06 02:16:00,41.8,18.6,29.99,NW,315,8.7,8.7,39,0.00,,,0.00,WUHU216HW,2013-04-06 06:16:00,
2013-04-06 02:21:00,41.6,18.4,30.00,West,270,3.1,8.7,39,0.00,,,0.00,WUHU216HW,2013-04-06 06:21:00,
2013-04-06 02:26:00,41.4,17.6,30.00,North,0,4.3,8.7,38,0.00,,,0.00,WUHU216HW,2013-04-06 06:26:00,
2013-04-06 02:31:00,41.4,18.2,30.00,NW,315,4.0,7.6,39,0.00,,,0.00,WUHU216HW,2013-04-06 06:31:00,
2013-04-06 02:36:00,41.0,17.3,30.00,NNE,23,3.1,8.9,38,0.00,,,0.00,WUHU216HW,2013-04-06 06:36:00,
2013-04-06 02:41:00,41.0,17.3,30.00,West,270,3.4,8.9,38,0.00,,,0.00,WUHU216HW,2013-04-06 06:41:00,
2013-04-06 02:46:00,41.0,17.3,30.00,SSW,203,1.6,7.2,38,0.00,,,0.00,WUHU216HW,2013-04-06 06:46:00,
2013-04-06 02:51:00,41.0,17.3,30.00,NNW,338,4.9,5.4,38,0.00,,,0.00,WUHU216HW,2013-04-06 06:51:00,
2013-04-06 02:56:00,40.9,17.1,30.01,North,0,2.5,8.1,38,0.00,,,0.00,WUHU216HW,2013-04-06 06:56:00,
2013-04-06 03:01:00,40.7,16.9,30.01,NNE,23,5.4,8.3,38,0.00,,,0.00,WUHU216HW,2013-04-06 07:01:00,
2013-04-06 03:06:00,40.7,16.9,30.01,NE,45,2.5,8.3,38,0.00,,,0.00,WUHU216HW,2013-04-06 07:06:00,
2013-04-06 03:11:00,40.7,16.9,30.01,NW,315,2.5,5.4,38,0.00,,,0.00,WUHU216HW,2013-04-06 07:11:00,
2013-04-06 03:16:00,40.5,17.4,30.02,North,0,2.5,4.3,39,0.00,,,0.00,WUHU216HW,2013-04-06 07:16:00,
2013-04-06 03:22:00,40.3,17.3,30.02,NW,315,1.1,5.1,39,0.00,,,0.00,WUHU216HW,2013-04-06 07:22:00,
2013-04-06 03:27:00,40.3,17.3,30.02,NNW,338,0.4,5.1,39,0.00,,,0.00,WUHU216HW,2013-04-06 07:27:00,
2013-04-06 03:31:00,40.3,17.3,30.02,NE,45,2.9,3.4,39,0.00,,,0.00,WUHU216HW,2013-04-06 07:31:00,
2013-04-06 03:37:00,40.0,16.9,30.03,NW,315,1.3,3.6,39,0.00,,,0.00,WUHU216HW,2013-04-06 07:37:00,
2013-04-06 03:42:00,40.0,16.9,30.03,NNW,338,4.0,4.3,39,0.00,,,0.00,WUHU216HW,2013-04-06 07:42:00,
2013-04-06 03:47:00,40.0,16.9,30.03,North,0,2.0,4.3,39,0.00,,,0.00,WUHU216HW,2013-04-06 07:47:00,
2013-04-06 03:52:00,39.8,17.4,30.03,NW,315,1.6,4.7,40,0.00,,,0.00,WUHU216HW,2013-04-06 07:52:00,
2013-04-06 03:57:00,39.8,17.4,30.03,WSW,248,5.6,6.7,40,0.00,,,0.00,WUHU216HW,2013-04-06 07:57:00,
2013-04-06 04:02:00,39.6,17.3,30.04,NW,315,4.5,6.7,40,0.00,,,0.00,WUHU216HW,2013-04-06 08:02:00,
2013-04-06 04:07:00,39.6,17.3,30.04,WNW,293,1.3,5.8,40,0.00,,,0.00,WUHU216HW,2013-04-06 08:07:00,
2013-04-06 04:12:00,39.4,17.1,30.04,NNE,23,1.6,5.8,40,0.00,,,0.00,WUHU216HW,2013-04-06 08:12:00,
2013-04-06 04:17:00,39.2,16.9,30.04,North,0,2.7,5.6,40,0.00,,,0.00,WUHU216HW,2013-04-06 08:17:00,
2013-04-06 04:22:00,39.2,17.5,30.04,North,0,3.4,6.9,41,0.00,,,0.00,WUHU216HW,2013-04-06 08:22:00,
2013-04-06 04:27:00,39.2,17.5,30.05,NNW,338,3.4,6.9,41,0.00,,,0.00,WUHU216HW,2013-04-06 08:27:00,
2013-04-06 04:32:00,39.1,17.3,30.05,NNW,338,0.7,7.6,41,0.00,,,0.00,WUHU216HW,2013-04-06 08:32:00,
2013-04-06 04:37:00,39.1,17.8,30.06,North,0,1.3,7.6,42,0.00,,,0.00,WUHU216HW,2013-04-06 08:37:00,
2013-04-06 04:42:00,39.1,17.3,30.06,NW,315,1.3,4.5,41,0.00,,,0.00,WUHU216HW,2013-04-06 08:42:00,
2013-04-06 04:47:00,38.9,17.6,30.06,NW,315,2.2,4.7,42,0.00,,,0.00,WUHU216HW,2013-04-06 08:47:00,
2013-04-06 04:52:00,38.9,17.6,30.06,NW,315,4.5,5.8,42,0.00,,,0.00,WUHU216HW,2013-04-06 08:52:00,
2013-04-06 04:57:00,38.7,17.5,30.07,NW,315,3.1,5.8,42,0.00,,,0.00,WUHU216HW,2013-04-06 08:57:00,
2013-04-06 05:02:00,38.5,17.8,30.07,North,0,2.7,5.8,43,0.00,,,0.00,WUHU216HW,2013-04-06 09:02:00,
2013-04-06 05:08:00,38.5,17.8,30.08,NE,45,2.5,5.8,43,0.00,,,0.00,WUHU216HW,2013-04-06 09:08:00,
2013-04-06 05:13:00,38.5,17.3,30.08,West,270,1.8,5.4,42,0.00,,,0.00,WUHU216HW,2013-04-06 09:13:00,
2013-04-06 05:18:00,38.5,17.8,30.08,NNW,338,2.7,5.4,43,0.00,,,0.00,WUHU216HW,2013-04-06 09:18:00,
2013-04-06 05:23:00,38.3,17.6,30.08,NNW,338,2.0,5.1,43,0.00,,,0.00,WUHU216HW,2013-04-06 09:23:00,
2013-04-06 05:28:00,38.3,18.2,30.08,North,0,1.8,4.7,44,0.00,,,0.00,WUHU216HW,2013-04-06 09:28:00,
2013-04-06 05:33:00,38.3,17.6,30.09,NW,315,0.2,4.7,43,0.00,,,0.00,WUHU216HW,2013-04-06 09:33:00,
2013-04-06 05:38:00,38.2,18.0,30.09,NE,45,2.0,4.0,44,0.00,,,0.00,WUHU216HW,2013-04-06 09:38:00,
2013-04-06 05:43:00,38.2,18.0,30.09,West,270,1.1,7.4,44,0.00,,,0.00,WUHU216HW,2013-04-06 09:43:00,
2013-04-06 05:48:00,38.2,18.0,30.10,SW,225,0.4,7.4,44,0.00,,,0.00,WUHU216HW,2013-04-06 09:48:00,
2013-04-06 05:53:00,38.2,18.0,30.10,North,0,0.4,5.4,44,0.00,,,0.00,WUHU216HW,2013-04-06 09:53:00,
2013-04-06 05:58:00,38.2,18.0,30.11,NW,315,1.6,4.0,44,0.00,,,0.00,WUHU216HW,2013-04-06 09:58:00,
2013-04-06 06:03:00,38.0,18.4,30.11,North,0,0.4,4.7,45,0.00,,,0.00,WUHU216HW,2013-04-06 10:03:00,
2013-04-06 06:08:00,38.0,17.9,30.11,NW,315,0.0,4.7,44,0.00,,,0.00,WUHU216HW,2013-04-06 10:08:00,
2013-04-06 06:13:00,37.8,18.3,30.11,North,0,0.4,4.9,45,0.00,,,0.00,WUHU216HW,2013-04-06 10:13:00,
2013-04-06 06:18:00,37.8,18.3,30.11,SW,225,2.7,4.9,45,0.00,,,0.00,WUHU216HW,2013-04-06 10:18:00,
2013-04-06 06:23:00,37.6,18.1,30.11,WNW,293,1.1,4.9,45,0.00,,,0.00,WUHU216HW,2013-04-06 10:23:00,
2013-04-06 06:28:00,37.6,18.1,30.12,NNE,23,0.7,4.9,45,0.00,,,0.00,WUHU216HW,2013-04-06 10:28:00,
2013-04-06 06:33:00,37.6,18.1,30.12,ENE,68,2.5,3.8,45,0.00,,,0.00,WUHU216HW,2013-04-06 10:33:00,
2013-04-06 06:38:00,37.6,18.1,30.13,WSW,248,1.1,5.4,45,0.00,,,0.00,WUHU216HW,2013-04-06 10:38:00,
2013-04-06 06:43:00,37.4,18.5,30.13,North,0,4.7,6.3,46,0.00,,,0.00,WUHU216HW,2013-04-06 10:43:00,
2013-04-06 06:48:00,37.4,18.5,30.13,NNW,338,0.7,6.3,46,0.00,,,0.00,WUHU216HW,2013-04-06 10:48:00,
2013-04-06 06:53:00,37.4,18.5,30.14,NW,315,0.9,4.7,46,0.00,,,0.00,WUHU216HW,2013-04-06 10:53:00,
2013-04-06 06:58:00,37.6,18.1,30.14,NW,315,2.9,4.0,45,0.00,,,0.00,WUHU216HW,2013-04-06 10:58:00,
2013-04-06 07:03:00,37.6,18.6,30.15,NNW,338,3.4,4.7,46,0.00,,,0.00,WUHU216HW,2013-04-06 11:03:00,
2013-04-06 07:08:00,37.8,18.3,30.15,NW,315,1.1,4.7,45,0.00,,,0.00,WUHU216HW,2013-04-06 11:08:00,
2013-04-06 07:13:00,37.8,18.7,30.16,NNE,23,2.5,4.9,46,0.00,,,0.00,WUHU216HW,2013-04-06 11:13:00,
2013-04-06 07:18:00,38.0,18.9,30.16,NNW,338,1.1,4.9,46,0.00,,,0.00,WUHU216HW,2013-04-06 11:18:00,
2013-04-06 07:23:00,38.3,19.3,30.17,North,0,1.3,4.0,46,0.00,,,0.00,WUHU216HW,2013-04-06 11:23:00,
2013-04-06 07:28:00,38.7,19.5,30.17,NNW,338,3.6,4.7,46,0.00,,,0.00,WUHU216HW,2013-04-06 11:28:00,
2013-04-06 07:33:00,39.1,19.9,30.17,ENE,68,0.4,4.7,46,0.00,,,0.00,WUHU216HW,2013-04-06 11:33:00,
2013-04-06 07:38:00,39.6,20.3,30.18,NNE,23,0.4,4.5,46,0.00,,,0.00,WUHU216HW,2013-04-06 11:38:00,
2013-04-06 07:43:00,39.6,20.3,30.18,North,0,6.0,6.0,46,0.00,,,0.00,WUHU216HW,2013-04-06 11:43:00,
2013-04-06 07:48:00,39.4,19.7,30.17,North,0,2.2,6.0,45,0.00,,,0.00,WUHU216HW,2013-04-06 11:48:00,
2013-04-06 07:53:00,39.8,20.5,30.18,WNW,293,1.1,6.0,46,0.00,,,0.00,WUHU216HW,2013-04-06 11:53:00,
2013-04-06 07:58:00,40.1,20.3,30.18,North,0,1.3,5.4,45,0.00,,,0.00,WUHU216HW,2013-04-06 11:58:00,
2013-04-06 08:03:00,40.7,20.8,30.18,WSW,248,1.6,5.4,45,0.00,,,0.00,WUHU216HW,2013-04-06 12:03:00,
2013-04-06 08:08:00,41.4,21.0,30.18,NE,45,5.4,5.4,44,0.00,,,0.00,WUHU216HW,2013-04-06 12:08:00,
2013-04-06 08:13:00,41.6,20.1,30.18,North,0,3.8,6.5,42,0.00,,,0.00,WUHU216HW,2013-04-06 12:13:00,
2013-04-06 08:18:00,41.9,20.4,30.19,North,0,5.1,6.5,42,0.00,,,0.00,WUHU216HW,2013-04-06 12:18:00,
2013-04-06 08:23:00,42.5,20.9,30.19,NNE,23,1.1,6.3,42,0.00,,,0.00,WUHU216HW,2013-04-06 12:23:00,
2013-04-06 08:28:00,43.0,20.4,30.20,NE,45,5.1,7.6,40,0.00,,,0.00,WUHU216HW,2013-04-06 12:28:00,
2013-04-06 08:33:00,43.6,20.2,30.20,North,0,3.4,7.6,39,0.00,,,0.00,WUHU216HW,2013-04-06 12:33:00,
2013-04-06 08:38:00,43.9,19.8,30.20,North,0,2.5,6.9,38,0.00,,,0.00,WUHU216HW,2013-04-06 12:38:00,
2013-04-06 08:43:00,44.3,18.8,30.21,WSW,248,4.9,5.6,36,0.00,,,0.00,WUHU216HW,2013-04-06 12:43:00,
2013-04-06 08:48:00,44.5,18.3,30.21,WNW,293,4.5,6.9,35,0.00,,,0.00,WUHU216HW,2013-04-06 12:48:00,
2013-04-06 08:53:00,44.3,17.5,30.21,NE,45,0.4,6.9,34,0.00,,,0.00,WUHU216HW,2013-04-06 12:53:00,
2013-04-06 08:58:00,44.3,16.8,30.21,North,0,4.0,5.6,33,0.00,,,0.00,WUHU216HW,2013-04-06 12:58:00,
2013-04-06 09:03:00,44.6,18.5,30.21,North,0,2.9,5.6,35,0.00,,,0.00,WUHU216HW,2013-04-06 13:03:00,
2013-04-06 09:08:00,44.8,17.9,30.22,NW,315,1.8,5.4,34,0.00,,,0.00,WUHU216HW,2013-04-06 13:08:00,
2013-04-06 09:13:00,44.8,17.3,30.22,NE,45,1.3,6.0,33,0.00,,,0.00,WUHU216HW,2013-04-06 13:13:00,
2013-04-06 09:18:00,45.2,17.7,30.22,NNW,338,4.0,6.0,33,0.00,,,0.00,WUHU216HW,2013-04-06 13:18:00,
2013-04-06 09:23:00,45.0,17.5,30.22,North,0,1.3,5.8,33,0.00,,,0.00,WUHU216HW,2013-04-06 13:23:00,
2013-04-06 09:28:00,45.0,16.7,30.23,West,270,3.8,7.4,32,0.00,,,0.00,WUHU216HW,2013-04-06 13:28:00,
2013-04-06 09:33:00,45.2,16.9,30.23,North,0,4.0,7.4,32,0.00,,,0.00,WUHU216HW,2013-04-06 13:33:00,
2013-04-06 09:38:00,45.7,18.1,30.23,NE,45,2.9,4.7,33,0.00,,,0.00,WUHU216HW,2013-04-06 13:38:00,
2013-04-06 09:43:00,45.7,17.5,30.24,NW,315,2.7,5.6,32,0.00,,,0.00,WUHU216HW,2013-04-06 13:43:00,
2013-04-06 09:48:00,45.5,16.6,30.24,NW,315,2.7,7.6,31,0.00,,,0.00,WUHU216HW,2013-04-06 13:48:00,
2013-04-06 09:53:00,45.5,17.3,30.24,NNW,338,2.7,7.6,32,0.00,,,0.00,WUHU216HW,2013-04-06 13:53:00,
2013-04-06 09:58:00,45.7,16.7,30.23,ENE,68,0.9,8.9,31,0.00,,,0.00,WUHU216HW,2013-04-06 13:58:00,
2013-04-06 10:03:00,46.3,17.3,30.24,East,90,2.7,8.9,31,0.00,,,0.00,WUHU216HW,2013-04-06 14:03:00,
2013-04-06 10:08:00,46.3,16.6,30.24,NE,45,4.7,5.4,30,0.00,,,0.00,WUHU216HW,2013-04-06 14:08:00,
2013-04-06 10:13:00,46.3,17.3,30.24,North,0,1.8,5.4,31,0.00,,,0.00,WUHU216HW,2013-04-06 14:13:00,
2013-04-06 10:18:00,46.8,17.7,30.24,ENE,68,1.6,5.1,31,0.00,,,0.00,WUHU216HW,2013-04-06 14:18:00,
2013-04-06 10:23:00,47.3,17.6,30.24,North,0,2.0,3.8,30,0.00,,,0.00,WUHU216HW,2013-04-06 14:23:00,
2013-04-06 10:28:00,47.5,17.7,30.24,WNW,293,1.6,5.4,30,0.00,,,0.00,WUHU216HW,2013-04-06 14:28:00,
2013-04-06 10:33:00,47.5,18.4,30.24,NNW,338,2.0,5.4,31,0.00,,,0.00,WUHU216HW,2013-04-06 14:33:00,
2013-04-06 10:38:00,47.9,18.0,30.24,NNW,338,1.1,6.9,30,0.00,,,0.00,WUHU216HW,2013-04-06 14:38:00,
2013-04-06 10:43:00,47.9,18.0,30.25,WSW,248,2.5,6.9,30,0.00,,,0.00,WUHU216HW,2013-04-06 14:43:00,
2013-04-06 10:48:00,48.2,17.5,30.25,NNW,338,3.1,6.9,29,0.00,,,0.00,WUHU216HW,2013-04-06 14:48:00,
2013-04-06 10:54:00,48.1,17.3,30.25,NNW,338,1.8,4.9,29,0.00,,,0.00,WUHU216HW,2013-04-06 14:54:00,
2013-04-06 10:59:00,48.6,17.7,30.25,WNW,293,1.6,4.5,29,0.00,,,0.00,WUHU216HW,2013-04-06 14:59:00,
2013-04-06 11:04:00,48.6,17.7,30.25,NW,315,3.4,5.1,29,0.00,,,0.00,WUHU216HW,2013-04-06 15:04:00,
2013-04-06 11:09:00,49.1,18.2,30.25,East,90,0.2,5.1,29,0.00,,,0.00,WUHU216HW,2013-04-06 15:09:00,
2013-04-06 11:14:00,49.3,17.4,30.25,North,0,4.7,4.7,28,0.00,,,0.00,WUHU216HW,2013-04-06 15:14:00,
2013-04-06 11:19:00,49.5,17.6,30.25,WNW,293,1.6,4.7,28,0.00,,,0.00,WUHU216HW,2013-04-06 15:19:00,
2013-04-06 11:24:00,49.7,17.6,30.25,South,180,1.8,12.5,28,0.00,,,0.00,WUHU216HW,2013-04-06 15:24:00,
2013-04-06 11:29:00,50.0,17.0,30.25,NNW,338,5.1,12.5,27,0.00,,,0.00,WUHU216HW,2013-04-06 15:29:00,
2013-04-06 11:35:00,50.0,17.0,30.25,SSW,203,0.9,5.1,27,0.00,,,0.00,WUHU216HW,2013-04-06 15:35:00,
2013-04-06 11:40:00,50.2,17.2,30.25,WSW,248,3.4,4.9,27,0.00,,,0.00,WUHU216HW,2013-04-06 15:40:00,
2013-04-06 11:45:00,50.4,15.5,30.25,West,270,7.2,7.2,25,0.00,,,0.00,WUHU216HW,2013-04-06 15:45:00,
2013-04-06 11:50:00,50.0,14.3,30.25,East,90,0.7,7.2,24,0.00,,,0.00,WUHU216HW,2013-04-06 15:50:00,
2013-04-06 11:55:00,50.0,15.2,30.25,NW,315,6.0,7.2,25,0.00,,,0.00,WUHU216HW,2013-04-06 15:55:00,
2013-04-06 12:00:00,50.2,14.4,30.25,NNE,23,2.2,6.9,24,0.00,,,0.00,WUHU216HW,2013-04-06 16:00:00,
2013-04-06 12:05:00,50.6,14.8,30.25,WNW,293,5.6,6.9,24,0.00,,,0.00,WUHU216HW,2013-04-06 16:05:00,
2013-04-06 12:10:00,50.6,14.8,30.25,SW,225,4.5,6.5,24,0.00,,,0.00,WUHU216HW,2013-04-06 16:10:00,
2013-04-06 12:15:00,50.4,14.6,30.25,SSW,203,2.5,8.5,24,0.00,,,0.00,WUHU216HW,2013-04-06 16:15:00,
2013-04-06 12:20:00,50.8,15.0,30.24,West,270,1.6,8.5,24,0.00,,,0.00,WUHU216HW,2013-04-06 16:20:00,
2013-04-06 12:25:00,51.1,15.2,30.24,NW,315,1.6,5.8,24,0.00,,,0.00,WUHU216HW,2013-04-06 16:25:00,
2013-04-06 12:30:00,51.3,15.4,30.24,North,0,2.7,5.8,24,0.00,,,0.00,WUHU216HW,2013-04-06 16:30:00,
2013-04-06 12:35:00,51.7,14.8,30.24,North,0,6.0,6.3,23,0.00,,,0.00,WUHU216HW,2013-04-06 16:35:00,
2013-04-06 12:40:00,51.5,15.5,30.25,WSW,248,1.3,6.3,24,0.00,,,0.00,WUHU216HW,2013-04-06 16:40:00,
2013-04-06 12:45:00,51.5,15.5,30.25,NW,315,2.9,6.3,24,0.00,,,0.00,WUHU216HW,2013-04-06 16:45:00,
2013-04-06 12:50:00,51.8,15.9,30.25,NE,45,1.8,5.6,24,0.00,,,0.00,WUHU216HW,2013-04-06 16:50:00,
2013-04-06 12:55:00,51.8,14.0,30.25,NNW,338,3.6,5.6,22,0.00,,,0.00,WUHU216HW,2013-04-06 16:55:00,
2013-04-06 13:00:00,52.0,15.0,30.24,West,270,3.4,8.5,23,0.00,,,0.00,WUHU216HW,2013-04-06 17:00:00,
2013-04-06 13:05:00,52.2,13.3,30.24,SW,225,4.5,8.5,21,0.00,,,0.00,WUHU216HW,2013-04-06 17:05:00,
2013-04-06 13:10:00,52.2,14.2,30.24,WSW,248,1.6,7.2,22,0.00,,,0.00,WUHU216HW,2013-04-06 17:10:00,
2013-04-06 13:15:00,52.6,15.5,30.25,SSW,203,1.1,7.2,23,0.00,,,0.00,WUHU216HW,2013-04-06 17:15:00,
2013-04-06 13:20:00,52.7,14.7,30.25,NNW,338,1.1,4.9,22,0.00,,,0.00,WUHU216HW,2013-04-06 17:20:00,
2013-04-06 13:25:00,52.6,13.6,30.24,ENE,68,2.7,4.7,21,0.00,,,0.00,WUHU216HW,2013-04-06 17:25:00,
2013-04-06 13:30:00,52.7,14.7,30.24,NNE,23,4.0,4.7,22,0.00,,,0.00,WUHU216HW,2013-04-06 17:30:00,
2013-04-06 13:35:00,52.7,13.8,30.24,NW,315,0.2,4.5,21,0.00,,,0.00,WUHU216HW,2013-04-06 17:35:00,
2013-04-06 13:40:00,52.6,14.5,30.24,WSW,248,3.4,6.3,22,0.00,,,0.00,WUHU216HW,2013-04-06 17:40:00,
2013-04-06 13:45:00,52.9,14.9,30.24,North,0,0.9,6.3,22,0.00,,,0.00,WUHU216HW,2013-04-06 17:45:00,
2013-04-06 13:50:00,53.5,14.3,30.24,South,180,2.7,3.8,21,0.00,,,0.00,WUHU216HW,2013-04-06 17:50:00,
2013-04-06 13:55:00,53.1,14.1,30.24,West,270,2.5,4.5,21,0.00,,,0.00,WUHU216HW,2013-04-06 17:55:00,
2013-04-06 14:00:00,52.9,13.9,30.24,ESE,113,1.6,4.5,21,0.00,,,0.00,WUHU216HW,2013-04-06 18:00:00,
2013-04-06 14:05:00,52.6,13.6,30.24,WNW,293,2.5,3.4,21,0.00,,,0.00,WUHU216HW,2013-04-06 18:05:00,
2013-04-06 14:10:00,52.4,13.4,30.24,North,0,0.4,4.0,21,0.00,,,0.00,WUHU216HW,2013-04-06 18:10:00,
2013-04-06 14:15:00,52.6,14.5,30.24,NE,45,1.8,4.0,22,0.00,,,0.00,WUHU216HW,2013-04-06 18:15:00,
2013-04-06 14:20:00,52.6,13.6,30.24,NE,45,2.5,3.6,21,0.00,,,0.00,WUHU216HW,2013-04-06 18:20:00,
2013-04-06 14:25:00,51.8,13.0,30.24,ENE,68,0.7,3.6,21,0.00,,,0.00,WUHU216HW,2013-04-06 18:25:00,
2013-04-06 14:30:00,51.8,13.0,30.24,ENE,68,1.3,2.9,21,0.00,,,0.00,WUHU216HW,2013-04-06 18:30:00,
2013-04-06 14:35:00,51.7,13.8,30.24,West,270,1.1,2.9,22,0.00,,,0.00,WUHU216HW,2013-04-06 18:35:00,
2013-04-06 14:40:00,51.8,13.0,30.23,North,0,4.3,4.3,21,0.00,,,0.00,WUHU216HW,2013-04-06 18:40:00,
2013-04-06 14:45:00,52.0,14.0,30.23,NNW,338,1.1,4.3,22,0.00,,,0.00,WUHU216HW,2013-04-06 18:45:00,
2013-04-06 14:50:00,52.0,14.0,30.23,NW,315,2.7,4.3,22,0.00,,,0.00,WUHU216HW,2013-04-06 18:50:00,
2013-04-06 14:55:00,52.4,15.3,30.23,West,270,2.0,3.4,23,0.00,,,0.00,WUHU216HW,2013-04-06 18:55:00,
2013-04-06 15:00:00,52.6,15.5,30.23,WNW,293,2.7,4.5,23,0.00,,,0.00,WUHU216HW,2013-04-06 19:00:00,
2013-04-06 15:05:00,52.6,16.4,30.23,SW,225,1.3,4.5,24,0.00,,,0.00,WUHU216HW,2013-04-06 19:05:00,
2013-04-06 15:10:00,52.6,17.4,30.22,South,180,1.6,3.4,25,0.00,,,0.00,WUHU216HW,2013-04-06 19:10:00,
2013-04-06 15:15:00,52.6,17.4,30.22,South,180,2.0,4.0,25,0.00,,,0.00,WUHU216HW,2013-04-06 19:15:00,
2013-04-06 15:20:00,52.2,18.9,30.22,SW,225,1.8,5.4,27,0.00,,,0.00,WUHU216HW,2013-04-06 19:20:00,
2013-04-06 15:25:00,52.4,19.1,30.22,SSW,203,2.5,5.4,27,0.00,,,0.00,WUHU216HW,2013-04-06 19:25:00,
2013-04-06 15:31:00,52.2,18.9,30.22,SSW,203,1.8,3.8,27,0.00,,,0.00,WUHU216HW,2013-04-06 19:31:00,
2013-04-06 15:35:00,52.0,18.8,30.22,WSW,248,2.2,4.0,27,0.00,,,0.00,WUHU216HW,2013-04-06 19:35:00,
2013-04-06 15:41:00,52.0,19.7,30.22,SSE,158,4.7,4.7,28,0.00,,,0.00,WUHU216HW,2013-04-06 19:41:00,
2013-04-06 15:46:00,51.5,19.3,30.22,South,180,4.7,4.7,28,0.00,,,0.00,WUHU216HW,2013-04-06 19:46:00,
2013-04-06 15:51:00,51.5,20.2,30.22,SW,225,2.9,4.7,29,0.00,,,0.00,WUHU216HW,2013-04-06 19:51:00,
2013-04-06 15:56:00,51.7,20.4,30.22,WSW,248,3.6,4.0,29,0.00,,,0.00,WUHU216HW,2013-04-06 19:56:00,
2013-04-06 16:01:00,51.7,20.4,30.23,SW,225,1.1,6.5,29,0.00,,,0.00,WUHU216HW,2013-04-06 20:01:00,
2013-04-06 16:06:00,51.5,20.2,30.23,SSW,203,3.4,6.5,29,0.00,,,0.00,WUHU216HW,2013-04-06 20:06:00,
2013-04-06 16:11:00,51.5,19.3,30.23,West,270,2.2,5.6,28,0.00,,,0.00,WUHU216HW,2013-04-06 20:11:00,
2013-04-06 16:16:00,51.5,19.3,30.23,SW,225,2.2,4.0,28,0.00,,,0.00,WUHU216HW,2013-04-06 20:16:00,
2013-04-06 16:21:00,51.7,19.4,30.23,SSW,203,1.8,4.0,28,0.00,,,0.00,WUHU216HW,2013-04-06 20:21:00,
2013-04-06 16:26:00,51.8,19.5,30.23,SSW,203,1.8,4.7,28,0.00,,,0.00,WUHU216HW,2013-04-06 20:26:00,
2013-04-06 16:31:00,51.8,18.6,30.23,SSE,158,1.6,5.6,27,0.00,,,0.00,WUHU216HW,2013-04-06 20:31:00,
2013-04-06 16:36:00,51.7,17.6,30.23,SW,225,1.1,5.6,26,0.00,,,0.00,WUHU216HW,2013-04-06 20:36:00,
2013-04-06 16:41:00,51.7,18.5,30.23,South,180,2.0,4.7,27,0.00,,,0.00,WUHU216HW,2013-04-06 20:41:00,
2013-04-06 16:47:00,52.0,17.8,30.24,SE,135,3.4,6.0,26,0.00,,,0.00,WUHU216HW,2013-04-06 20:47:00,
2013-04-06 16:52:00,51.8,19.5,30.24,SSW,203,2.5,6.0,28,0.00,,,0.00,WUHU216HW,2013-04-06 20:52:00,
2013-04-06 16:57:00,51.5,20.2,30.24,SSE,158,2.0,4.5,29,0.00,,,0.00,WUHU216HW,2013-04-06 20:57:00,
2013-04-06 17:02:00,51.5,21.1,30.24,NW,315,1.1,5.4,30,0.00,,,0.00,WUHU216HW,2013-04-06 21:02:00,
2013-04-06 17:07:00,51.3,21.6,30.24,South,180,2.2,5.4,31,0.00,,,0.00,WUHU216HW,2013-04-06 21:07:00,
2013-04-06 17:12:00,50.4,22.1,30.25,WNW,293,1.1,4.9,33,0.00,,,0.00,WUHU216HW,2013-04-06 21:12:00,
2013-04-06 17:17:00,50.0,21.9,30.25,South,180,4.0,4.9,33,0.00,,,0.00,WUHU216HW,2013-04-06 21:17:00,
2013-04-06 17:22:00,49.7,21.5,30.25,South,180,3.1,4.7,33,0.00,,,0.00,WUHU216HW,2013-04-06 21:22:00,
2013-04-06 17:27:00,49.5,22.1,30.25,SSW,203,2.5,5.1,34,0.00,,,0.00,WUHU216HW,2013-04-06 21:27:00,
2013-04-06 17:32:00,49.3,23.9,30.25,SW,225,3.1,5.1,37,0.00,,,0.00,WUHU216HW,2013-04-06 21:32:00,
2013-04-06 17:37:00,49.1,23.8,30.25,South,180,3.1,4.9,37,0.00,,,0.00,WUHU216HW,2013-04-06 21:37:00,
2013-04-06 17:42:00,49.0,24.3,30.25,SSW,203,2.5,4.9,38,0.00,,,0.00,WUHU216HW,2013-04-06 21:42:00,
2013-04-06 17:47:00,49.0,24.3,30.26,South,180,3.1,4.0,38,0.00,,,0.00,WUHU216HW,2013-04-06 21:47:00,
2013-04-06 17:52:00,48.6,24.0,30.26,South,180,5.4,5.4,38,0.00,,,0.00,WUHU216HW,2013-04-06 21:52:00,
2013-04-06 17:57:00,48.1,23.5,30.26,East,90,1.1,5.4,38,0.00,,,0.00,WUHU216HW,2013-04-06 21:57:00,
2013-04-06 18:02:00,47.9,24.0,30.26,SW,225,1.6,5.4,39,0.00,,,0.00,WUHU216HW,2013-04-06 22:02:00,
2013-04-06 18:07:00,47.3,24.2,30.26,SSW,203,2.5,4.7,40,0.00,,,0.00,WUHU216HW,2013-04-06 22:07:00,
2013-04-06 18:12:00,47.0,23.9,30.26,South,180,2.5,4.7,40,0.00,,,0.00,WUHU216HW,2013-04-06 22:12:00,
2013-04-06 18:17:00,46.6,25.8,30.26,SSW,203,3.1,4.7,44,0.00,,,0.00,WUHU216HW,2013-04-06 22:17:00,
2013-04-06 18:22:00,46.3,25.4,30.26,SW,225,2.5,4.7,44,0.00,,,0.00,WUHU216HW,2013-04-06 22:22:00,
2013-04-06 18:27:00,46.1,24.1,30.26,SSW,203,2.9,4.5,42,0.00,,,0.00,WUHU216HW,2013-04-06 22:27:00,
2013-04-06 18:32:00,45.9,25.1,30.26,SW,225,2.5,4.7,44,0.00,,,0.00,WUHU216HW,2013-04-06 22:32:00,
2013-04-06 18:37:00,45.7,24.4,30.26,SSW,203,2.9,4.7,43,0.00,,,0.00,WUHU216HW,2013-04-06 22:37:00,
2013-04-06 18:42:00,45.4,24.0,30.27,SSE,158,1.8,4.7,43,0.00,,,0.00,WUHU216HW,2013-04-06 22:42:00,
2013-04-06 18:47:00,45.4,25.1,30.27,South,180,1.8,4.7,45,0.00,,,0.00,WUHU216HW,2013-04-06 22:47:00,
2013-04-06 18:52:00,45.2,24.4,30.26,South,180,1.8,3.1,44,0.00,,,0.00,WUHU216HW,2013-04-06 22:52:00,
2013-04-06 18:58:00,45.0,24.9,30.27,SW,225,1.8,4.7,45,0.00,,,0.00,WUHU216HW,2013-04-06 22:58:00,
2013-04-06 19:03:00,44.8,25.8,30.27,South,180,1.8,4.7,47,0.00,,,0.00,WUHU216HW,2013-04-06 23:03:00,
2013-04-06 19:08:00,44.6,25.6,30.27,SSW,203,1.3,3.4,47,0.00,,,0.00,WUHU216HW,2013-04-06 23:08:00,
2013-04-06 19:13:00,44.6,26.1,30.27,SW,225,3.4,4.0,48,0.00,,,0.00,WUHU216HW,2013-04-06 23:13:00,
2013-04-06 19:18:00,44.5,25.4,30.27,WSW,248,1.1,4.0,47,0.00,,,0.00,WUHU216HW,2013-04-06 23:18:00,
2013-04-06 19:23:00,44.5,25.9,30.27,SE,135,0.9,2.5,48,0.00,,,0.00,WUHU216HW,2013-04-06 23:23:00,
2013-04-06 19:28:00,44.3,26.3,30.26,South,180,1.8,3.1,49,0.00,,,0.00,WUHU216HW,2013-04-06 23:28:00,
2013-04-06 19:33:00,44.3,26.3,30.26,SSW,203,0.0,3.1,49,0.00,,,0.00,WUHU216HW,2013-04-06 23:33:00,
2013-04-06 19:38:00,44.1,26.7,30.27,SSW,203,1.1,2.9,50,0.00,,,0.00,WUHU216HW,2013-04-06 23:38:00,
2013-04-06 19:43:00,43.9,26.6,30.27,South,180,1.8,1.8,50,0.00,,,0.00,WUHU216HW,2013-04-06 23:43:00,
2013-04-06 19:48:00,43.9,26.6,30.27,SSE,158,1.1,3.4,50,0.00,,,0.00,WUHU216HW,2013-04-06 23:48:00,
2013-04-06 19:53:00,43.9,27.0,30.27,SSW,203,0.2,3.4,51,0.00,,,0.00,WUHU216HW,2013-04-06 23:53:00,
2013-04-06 19:58:00,43.7,26.4,30.27,SSW,203,0.7,1.8,50,0.00,,,0.00,WUHU216HW,2013-04-06 23:58:00,
2013-04-06 20:03:00,43.7,26.4,30.27,WSW,248,2.0,2.9,50,0.00,,,0.00,WUHU216HW,2013-04-07 00:03:00,
2013-04-06 20:08:00,43.7,26.8,30.27,SW,225,0.7,2.9,51,0.00,,,0.00,WUHU216HW,2013-04-07 00:08:00,
2013-04-06 20:13:00,43.7,26.8,30.28,SSW,203,1.1,3.1,51,0.00,,,0.00,WUHU216HW,2013-04-07 00:13:00,
2013-04-06 20:18:00,43.6,26.6,30.28,SSW,203,1.8,3.1,51,0.00,,,0.00,WUHU216HW,2013-04-07 00:18:00,
2013-04-06 20:23:00,43.6,27.6,30.28,South,180,0.4,2.5,53,0.00,,,0.00,WUHU216HW,2013-04-07 00:23:00,
2013-04-06 20:28:00,43.4,26.9,30.28,WSW,248,1.1,1.8,52,0.00,,,0.00,WUHU216HW,2013-04-07 00:28:00,
2013-04-06 20:33:00,43.2,27.2,30.28,SW,225,0.0,1.8,53,0.00,,,0.00,WUHU216HW,2013-04-07 00:33:00,
2013-04-06 20:38:00,43.2,27.2,30.28,SW,225,1.3,1.8,53,0.00,,,0.00,WUHU216HW,2013-04-07 00:38:00,
2013-04-06 20:43:00,43.0,27.0,30.29,SSE,158,0.7,1.6,53,0.00,,,0.00,WUHU216HW,2013-04-07 00:43:00,
2013-04-06 20:48:00,43.0,27.0,30.29,SW,225,0.4,1.6,53,0.00,,,0.00,WUHU216HW,2013-04-07 00:48:00,
2013-04-06 20:53:00,42.8,26.8,30.29,SSE,158,0.4,2.0,53,0.00,,,0.00,WUHU216HW,2013-04-07 00:53:00,
2013-04-06 20:58:00,42.8,26.8,30.29,SW,225,1.6,2.0,53,0.00,,,0.00,WUHU216HW,2013-04-07 00:58:00,
2013-04-06 21:03:00,42.8,26.8,30.29,SSE,158,0.7,2.0,53,0.00,,,0.00,WUHU216HW,2013-04-07 01:03:00,
2013-04-06 21:08:00,42.8,26.8,30.29,SW,225,0.9,1.6,53,0.00,,,0.00,WUHU216HW,2013-04-07 01:08:00,
2013-04-06 21:13:00,42.7,26.6,30.29,WSW,248,1.1,1.6,53,0.00,,,0.00,WUHU216HW,2013-04-07 01:13:00,
2013-04-06 21:18:00,42.7,26.6,30.29,SSE,158,0.0,1.8,53,0.00,,,0.00,WUHU216HW,2013-04-07 01:18:00,
2013-04-06 21:24:00,42.7,27.1,30.29,SSW,203,0.4,1.8,54,0.00,,,0.00,WUHU216HW,2013-04-07 01:24:00,
2013-04-06 21:29:00,42.7,26.6,30.29,South,180,0.0,1.8,53,0.00,,,0.00,WUHU216HW,2013-04-07 01:29:00,
2013-04-06 21:34:00,42.7,27.1,30.29,South,180,0.4,1.8,54,0.00,,,0.00,WUHU216HW,2013-04-07 01:34:00,
2013-04-06 21:39:00,42.7,27.1,30.29,SSW,203,0.0,1.6,54,0.00,,,0.00,WUHU216HW,2013-04-07 01:39:00,
2013-04-06 21:44:00,42.5,26.9,30.29,South,180,0.4,1.1,54,0.00,,,0.00,WUHU216HW,2013-04-07 01:44:00,
2013-04-06 21:49:00,42.5,27.4,30.29,SSW,203,0.0,1.8,55,0.00,,,0.00,WUHU216HW,2013-04-07 01:49:00,
2013-04-06 21:54:00,42.5,27.4,30.29,SW,225,1.1,1.8,55,0.00,,,0.00,WUHU216HW,2013-04-07 01:54:00,
2013-04-06 21:59:00,42.3,27.2,30.28,SSW,203,0.0,2.0,55,0.00,,,0.00,WUHU216HW,2013-04-07 01:59:00,
2013-04-06 22:04:00,42.3,27.2,30.28,SSW,203,0.7,2.0,55,0.00,,,0.00,WUHU216HW,2013-04-07 02:04:00,
2013-04-06 22:09:00,42.1,27.5,30.28,SSW,203,0.0,1.1,56,0.00,,,0.00,WUHU216HW,2013-04-07 02:09:00,
2013-04-06 22:14:00,42.1,27.5,30.28,SSW,203,0.7,1.8,56,0.00,,,0.00,WUHU216HW,2013-04-07 02:14:00,
2013-04-06 22:19:00,41.9,27.3,30.28,SSE,158,0.9,1.8,56,0.00,,,0.00,WUHU216HW,2013-04-07 02:19:00,
2013-04-06 22:24:00,41.9,27.3,30.29,South,180,0.0,1.6,56,0.00,,,0.00,WUHU216HW,2013-04-07 02:24:00,
2013-04-06 22:30:00,41.9,27.3,30.28,SSW,203,0.4,1.8,56,0.00,,,0.00,WUHU216HW,2013-04-07 02:30:00,
2013-04-06 22:35:00,41.9,27.3,30.28,South,180,0.4,1.8,56,0.00,,,0.00,WUHU216HW,2013-04-07 02:35:00,
2013-04-06 22:40:00,41.9,27.7,30.29,South,180,0.4,2.0,57,0.00,,,0.00,WUHU216HW,2013-04-07 02:40:00,
2013-04-06 22:45:00,41.8,27.5,30.28,SSW,203,0.0,2.0,57,0.00,,,0.00,WUHU216HW,2013-04-07 02:45:00,
2013-04-06 22:50:00,41.8,28.0,30.28,SW,225,0.0,1.1,58,0.00,,,0.00,WUHU216HW,2013-04-07 02:50:00,
2013-04-06 22:55:00,41.8,27.5,30.28,South,180,0.4,0.7,57,0.00,,,0.00,WUHU216HW,2013-04-07 02:55:00,
2013-04-06 23:00:00,41.6,27.9,30.28,SW,225,0.4,0.7,58,0.00,,,0.00,WUHU216HW,2013-04-07 03:00:00,
2013-04-06 23:05:00,41.6,28.3,30.28,South,180,0.0,1.1,59,0.00,,,0.00,WUHU216HW,2013-04-07 03:05:00,
2013-04-06 23:10:00,41.6,27.9,30.28,SW,225,0.0,1.1,58,0.00,,,0.00,WUHU216HW,2013-04-07 03:10:00,
2013-04-06 23:15:00,41.4,28.2,30.28,SSW,203,0.0,1.6,59,0.00,,,0.00,WUHU216HW,2013-04-07 03:15:00,
2013-04-06 23:20:00,41.4,28.2,30.28,SSW,203,0.4,1.6,59,0.00,,,0.00,WUHU216HW,2013-04-07 03:20:00,
2013-04-06 23:25:00,41.4,28.2,30.28,SSW,203,0.0,1.6,59,0.00,,,0.00,WUHU216HW,2013-04-07 03:25:00,
2013-04-06 23:30:00,41.4,28.2,30.28,SSW,203,0.7,2.0,59,0.00,,,0.00,WUHU216HW,2013-04-07 03:30:00,
2013-04-06 23:35:00,41.4,28.6,30.28,SSE,158,0.9,2.0,60,0.00,,,0.00,WUHU216HW,2013-04-07 03:35:00,
2013-04-06 23:40:00,41.2,28.5,30.28,South,180,0.4,0.9,60,0.00,,,0.00,WUHU216HW,2013-04-07 03:40:00,
2013-04-06 23:45:00,41.2,28.5,30.28,SE,135,0.0,1.1,60,0.00,,,0.00,WUHU216HW,2013-04-07 03:45:00,
2013-04-06 23:50:00,41.2,28.5,30.28,SE,135,0.0,1.1,60,0.00,,,0.00,WUHU216HW,2013-04-07 03:50:00,
2013-04-06 23:55:00,41.2,28.5,30.27,SE,135,0.0,0.7,60,0.00,,,0.00,WUHU216HW,2013-04-07 03:55:00,